Weather Roundup
Issued by NWS Corpus Christi, TX

Home | Current Version | Previous Version | Text Only | Print | Product List | Glossary On
Versions: 1 2 3 4 5 6 7 8 9 10 11 12 13 14 15 16 17 18 19 20 21 22 23 24 25 26 27 28 29 30 31 32 33 34 35 36 37 38 39 40 41 42 43 44 45 46 47 48 49 50
000
ASUS44 KCRP 182210
HRRCRP

SOUTH TEXAS REGIONAL WEATHER ROUNDUP
NATIONAL WEATHER SERVICE CORPUS CHRISTI TX
400 PM CST WED JAN 18 2017


TXZ229>244-182300-
...CORPUS CHRISTI AREA OBSERVATIONS...

CITY           SKY/WX    TMP DP  RH WIND       PRES   REMARKS
CORPUS CHRISTI CLOUDY    60  55  83 N15       29.97F
NAS CORPUS CHR CLOUDY    62  56  80 NW15      29.96F
ROCKPORT       CLOUDY    61  55  81 NW8       29.97F
KINGSVILLE NAS CLOUDY    62  57  83 N9        29.99S
ALICE          CLOUDY    61  54  77 N7        29.98F
ORANGE GROVE   CLOUDY    61  56  83 N7        29.99F
FALFURRIAS     CLOUDY    63  54  73 NW6       29.98S
$$

...VICTORIA AREA OBSERVATIONS...

CITY           SKY/WX    TMP DP  RH WIND       PRES   REMARKS
VICTORIA       CLOUDY    59  55  87 NW12      29.99S
BEEVILLE       CLOUDY    59  57  93 N5        30.00R
PLEASANTON     CLOUDY    62  53  73 NW5       30.00S
SAN ANTONIO    CLOUDY    64  53  67 N6        29.99F
$$

...LAREDO AREA OBSERVATIONS...

CITY           SKY/WX    TMP DP  RH WIND       PRES   REMARKS
LAREDO         CLOUDY    66  50  56 N6        29.99F
COTULLA        CLOUDY    70  50  49 MISG      29.99F
DEL RIO        PTSUNNY   56  45  66 N6        30.03F
MCALLEN        CLOUDY    68  55  63 NW10      29.98F
HEBBRONVILLE   CLOUDY    60  53  76 N6        29.99F
$$

...OTHER TEXAS OBSERVATIONS...

CITY           SKY/WX    TMP DP  RH WIND       PRES   REMARKS
BROWNSVILLE    CLOUDY    68  58  70 N10       29.97F HAZE
HOUSTON        CLOUDY    63  60  90 NW5       29.96S
COL. STATION   CLOUDY    54  53  97 NW9       30.00R FOG
AUSTIN         CLOUDY    57  52  83 N9        30.01F
WACO           CLOUDY    51  49  92 NW10      30.03F
FORT WORTH     CLOUDY    54  50  86 NW7       30.02F
WICHITA FALLS  PTSUNNY   52  46  80 VRB6      30.01F
LUBBOCK        MOSUNNY   57  43  59 SW13      29.95F
EL PASO        MOSUNNY   55  35  47 SW10      30.03F
$$

...MARINE OBSERVATIONS...

STATION/POSITION TIME  SKY/WX   TEMP    WIND        PRES    VSBY  WAVE   SWELL
                                AIR SEA DIR/SP/G                  HT/PER HT/PER
                 (UTC)          (F)     (DEG/KT/KT) (MB)    (MI)  (FT/S) (FT/S)
PORT ARANSAS     2200            62 64  320/  8/ 12 1014.4F
BUOY 90 E PORT A 2150            71 73  230/ 12/ 16 1014.7R         4/ 7   3/ 7
BUOY 45 SE BAFFI 2050            62     330/ 16/ 17 1015.0          4/ 8   3/ 8
BUOY 200 E PT IS 2050            76 75  160/ 10/ 12 1015.0          4/ 7   3/ 7
BUOY 15 E GALVES 2050            69 66  160/ 10/ 10 1014.2          3/ 7   2/ 7
$$




USA.gov is the U.S. government's official web portal to all federal, state and local government web resources and services.